Погода в Чугуеве

Украина / Харьковская область     49°50′06″N   36°40′46″E
темп.,
°C
ветер,
м/с
пор.,
м/с
влажн.,
%
обл.,
%
осадки,
мм/ч
давл.,
гПа
погр.,
м
1 августа, вс
вс100:00+22ююв34570 0.0 101160
03:00+21ю22640 0.0 101213
06:00+21з11610 0.0 101211
09:00+28ююв11410 0.0 1012453
12:00+32зюз22300 0.0 10122460
15:00+34з332611 0.0 10113050
18:00+33з3226100 0.0 10101695
21:00+26юз2244100 0.0 101118
2 августа, пн
пн200:00+23ю22500 0.0 101111
03:00+22ю22540 0.0 101112
06:00+22ю22560 0.0 101223
09:00+30ююз34360 0.0 1011505
12:00+34юз442718 0.0 10102686
15:00+35юз55255 0.0 10093021
18:00+34ююз66270 0.0 10072688
21:00+22ссз91468100 0.0 1011480
3 августа, вт
вт300:00+20вюв1178100 0.0 100919
03:00+19зюз228819 0.6 101025
06:00+19зсз23870 0.1 101174
09:00+24зсз4569100 0.1 1011722
12:00+26з345973 0.1 10111159
15:00+24зсз246936 0.9 1011215
18:00+28зсз663662 0.0 10111711
21:00+22ссз495163 0.0 1013258
4 августа, ср
ср400:00+19с34650 0.0 101550
03:00+17с227210 0.0 101614
06:00+17с22730 0.0 101739
09:00+24ссз22480 0.0 1017796
12:00+28сз342834 0.0 10172935
15:00+29зсз65249 0.0 10162954
18:00+28зсз542720 0.0 10162559
21:00+21с33390 0.0 101740
5 августа, чт
чт500:00+18св224574 0.0 101812
03:00+17св115110 0.0 101811
06:00+17всв115427 0.0 101811
09:00+26юв22345 0.0 1018559
12:00+29ююз332667 0.0 10172300
15:00+31зюз332413 0.0 10162832
18:00+30сз2228100 0.0 10151316
21:00+23всв37415 0.0 1015132